Weather History for PABR - September, 2012

Change the Weather History Date:

Monday, September 10, 2012

  Actual Average Record
Temperature  
Mean Temperature 33 °F 34 °F  
Max Temperature 36 °F 38 °F 55 °F (2001)
Min Temperature 30 °F 31 °F 19 °F (1955)
Degree Days  
Heating Degree Days 32 31  
Month to date heating degree days 291 295  
Since 1 July heating degree days 1542 1849  
Cooling Degree Days 0    
Month to date cooling degree days 0  
Year to date cooling degree days 0  
Moisture  
Dew Point 29 °F    
Average Humidity 0    
Maximum Humidity 0    
Minimum Humidity 0    
Precipitation  
Precipitation T in 0.03 in 0.28 in (2011)
Month to date precipitation 0.75 0.28  
Year to date precipitation 3.56 3.33  
Snow  
Snow 0.20 in 0.10 in 0.40 in (1999)
Month to date snowfall 2.2 0.9  
Since 1 July snowfall 2.4 2.0  
Since 1 September snowfall 2.2 0.9  
Snow Depth 0.00 in    
Sea Level Pressure  
Sea Level Pressure 30.19 in    
Wind  
Wind Speed 6 mph (ENE)    
Max Wind Speed 10 mph    
Max Gust Speed 14 mph    
Visibility 7 miles    
Events Snow    
T = Trace of Precipitation, MM = Missing Value Source: NWS Daily Summary

Daily Weather History Graph

Daily Weather History Graph

Search for Another Location

Airport or City:

Trip Planner

Search our weather history database for the weather conditions in past years. The results will help you decide how hot, cold, wet, or windy it might be!

Date:

Astronomy

Sep. 10, 2012 Rise Set
Actual Time 7:17 AM AKDT 9:26 PM AKDT
Civil Twilight 6:06 AM AKDT 10:37 PM AKDT
Nautical Twilight 4:11 AM AKDT 12:27 AM AKDT
Astronomical Twilight Sun does not rise Sun does not rise
Moon 11:28 PM AKDT (9/10) 9:31 PM AKDT (9/10)
Length of Visible Light 16h 31m
Length of Day
14h 09m
Waning Crescent, 29% of the Moon is Illuminated
Sep 10
Waning Crescent
Sep 15
New
Sep 22
First Quarter
Sep 29
Full
Oct 7
Last Quarter

Hourly Weather History & Observations

Time (AKDT) Temp. Windchill Dew Point Humidity Pressure Visibility Wind Dir Wind Speed Gust Speed Precip Events Conditions
12:16 AM 33.8 °F 27.7 °F 26.6 °F 75% 30.19 in 10.0 mi NNE 6.9 mph - N/A   Overcast
12:53 AM 32.0 °F 24.8 °F 28.9 °F 88% 30.20 in 9.0 mi NE 8.1 mph - 0.00 in Snow Light Snow
1:53 AM 32.0 °F 27.5 °F 26.1 °F 79% 30.20 in 9.0 mi NE 4.6 mph - 0.00 in Snow Light Snow
2:38 AM 32.0 °F 27.5 °F 28.4 °F 87% 30.19 in 2.5 mi ENE 4.6 mph - 0.00 in Snow Light Snow
2:48 AM 32.0 °F 28.7 °F 28.4 °F 87% 30.19 in 2.0 mi ENE 3.5 mph - 0.00 in Snow Light Snow
2:53 AM 32.0 °F - 28.9 °F 88% 30.19 in 2.5 mi Calm Calm - 0.00 in Snow Light Snow
2:57 AM 30.2 °F - 30.2 °F 100% 30.19 in 3.0 mi Calm Calm - 0.00 in Snow Light Snow
3:06 AM 30.2 °F - 30.2 °F 100% 30.19 in 2.5 mi Calm Calm - 0.00 in Snow Light Snow
3:23 AM 32.0 °F - 30.2 °F 93% 30.19 in 5.0 mi Calm Calm - 0.00 in Snow Light Snow
3:53 AM 32.0 °F 24.8 °F 27.0 °F 82% 30.19 in 10.0 mi NNE 8.1 mph - 0.00 in   Overcast
4:53 AM 32.0 °F 25.6 °F 27.0 °F 82% 30.20 in 9.0 mi NE 6.9 mph - 0.00 in   Overcast
5:53 AM 32.0 °F 26.4 °F 26.1 °F 79% 30.19 in 10.0 mi NNE 5.8 mph - N/A   Overcast
6:53 AM 33.1 °F 27.7 °F 26.1 °F 75% 30.19 in 9.0 mi NE 5.8 mph - 0.00 in Snow Light Snow
7:53 AM 32.0 °F 24.2 °F 27.0 °F 82% 30.20 in 7.0 mi ENE 9.2 mph - 0.00 in   Overcast
8:53 AM 32.0 °F 28.7 °F 28.9 °F 88% 30.20 in 10.0 mi East 3.5 mph - 0.00 in   Overcast
9:53 AM 32.0 °F 28.7 °F 28.9 °F 88% 30.19 in 3.0 mi East 3.5 mph - 0.00 in Snow Light Snow
10:53 AM 32.0 °F - 28.0 °F 85% 30.20 in 8.0 mi Calm Calm - 0.00 in Snow Light Snow
11:20 AM 33.8 °F 27.7 °F 28.4 °F 81% 30.19 in 9.0 mi East 6.9 mph - 0.00 in Snow Light Snow
11:33 AM 33.8 °F 28.6 °F 28.4 °F 81% 30.19 in 8.0 mi ENE 5.8 mph - 0.00 in Snow Light Snow
11:53 AM 34.0 °F 27.2 °F 28.0 °F 79% 30.20 in 10.0 mi ENE 8.1 mph - 0.00 in   Overcast
12:53 PM 34.0 °F 28.0 °F 27.0 °F 75% 30.20 in 10.0 mi Variable 6.9 mph - 0.00 in   Overcast
1:53 PM 35.1 °F 31.0 °F 28.0 °F 76% 30.20 in 10.0 mi ENE 4.6 mph - N/A   Overcast
2:53 PM 33.1 °F 25.5 °F 28.9 °F 85% 30.20 in 2.5 mi ENE 9.2 mph - 0.00 in Snow Light Snow
2:58 PM 33.8 °F 27.7 °F 30.2 °F 87% 30.20 in 1.8 mi NE 6.9 mph - 0.00 in Snow Light Snow
3:07 PM 35.6 °F 31.7 °F 30.2 °F 81% 30.19 in 2.0 mi NE 4.6 mph - 0.00 in Snow Light Snow
3:16 PM 35.6 °F 29.9 °F 30.2 °F 81% 30.19 in 9.0 mi ENE 6.9 mph - 0.00 in Snow Light Snow
3:23 PM 33.8 °F 30.8 °F 28.4 °F 81% 30.19 in 9.0 mi ENE 3.5 mph - 0.00 in Snow Light Snow
3:53 PM 34.0 °F 28.8 °F 28.9 °F 82% 30.19 in 6.0 mi NNE 5.8 mph - 0.00 in   Haze
4:01 PM 33.8 °F 27.0 °F 30.2 °F 87% 30.19 in 5.0 mi NNE 8.1 mph - 0.00 in Snow Light Snow
4:08 PM 35.6 °F 28.6 °F 30.2 °F 81% 30.18 in 9.0 mi NNE 9.2 mph - 0.00 in   Overcast
4:53 PM 35.1 °F 28.6 °F 28.9 °F 78% 30.19 in 8.0 mi NNE 8.1 mph - 0.00 in   Mostly Cloudy
4:58 PM 33.8 °F 25.8 °F 30.2 °F 87% 30.19 in 2.5 mi ENE 10.4 mph - 0.00 in Snow Light Snow
5:19 PM 33.8 °F 28.6 °F 30.2 °F 87% 30.19 in 5.0 mi East 5.8 mph - 0.00 in Snow Light Snow
5:37 PM 33.8 °F 28.6 °F 30.2 °F 87% 30.19 in 10.0 mi ENE 5.8 mph - 0.00 in   Mostly Cloudy
5:53 PM 34.0 °F 26.6 °F 28.9 °F 82% 30.19 in 10.0 mi East 9.2 mph - 0.00 in   Mostly Cloudy
6:53 PM 35.6 °F 28.0 °F 28.4 °F 75% 30.18 in 10.0 mi East 10.4 mph - N/A   Mostly Cloudy
7:53 PM 34.0 °F 27.2 °F 28.0 °F 79% 30.18 in 10.0 mi East 8.1 mph - N/A   Overcast
8:30 PM 33.8 °F 27.0 °F 28.4 °F 81% 30.17 in 7.0 mi ENE 8.1 mph - 0.00 in Snow Light Snow
8:53 PM 33.1 °F 26.1 °F 28.0 °F 82% 30.18 in 10.0 mi ESE 8.1 mph - 0.00 in   Overcast
9:53 PM 33.1 °F 28.7 °F 28.0 °F 82% 30.18 in 10.0 mi ESE 4.6 mph - N/A   Overcast
10:53 PM 32.0 °F 25.6 °F 28.9 °F 88% 30.18 in 10.0 mi East 6.9 mph - N/A   Overcast
11:53 PM 32.0 °F 27.5 °F 30.0 °F 92% 30.18 in 7.0 mi East 4.6 mph - 0.00 in Snow Light Snow